AZA3EG HECA-LICJ

Flight info

Callsign AZA3EG
Flight time 2h 53m
Altitude 36000
Route NOZ DCT METRU DCT LORNO DCT PELEN
Aircraft A320/M-SDE3FGHIRWY/LB1

Departure

Time 2026-05-05 20:11
Airport Cairo International Airport (HECA)

Arrival

Time 2026-05-05 23:04
Airport Falcone–Borsellino Airport (LICJ)
Time Latitude Longitude Altitude Speed Heading
2026-05-05 19:51 30.11085 31.40449 359 ft 0 kts 270°
2026-05-05 19:59 30.11085 31.40460 360 ft 2 kts 270°
2026-05-05 19:59 30.11085 31.40479 355 ft 2 kts 270°
2026-05-05 20:00 30.11085 31.40497 360 ft 2 kts 270°
2026-05-05 20:00 30.11085 31.40516 356 ft 2 kts 270°
2026-05-05 20:00 30.11085 31.40534 357 ft 2 kts 243°
2026-05-05 20:00 30.11097 31.40548 365 ft 3 kts 171°
2026-05-05 20:01 30.11108 31.40542 365 ft 0 kts 129°
2026-05-05 20:03 30.11103 31.40549 364 ft 5 kts 133°
2026-05-05 20:03 30.11065 31.40588 360 ft 9 kts 139°
2026-05-05 20:03 30.11004 31.40626 366 ft 10 kts 188°
2026-05-05 20:04 30.10939 31.40558 369 ft 16 kts 229°
2026-05-05 20:04 30.10858 31.40448 365 ft 18 kts 229°
2026-05-05 20:04 30.10805 31.40378 365 ft 17 kts 229°
2026-05-05 20:04 30.10740 31.40297 366 ft 11 kts 226°
2026-05-05 20:05 30.10680 31.40215 366 ft 9 kts 231°
2026-05-05 20:05 30.10654 31.40179 366 ft 9 kts 230°
2026-05-05 20:05 30.10606 31.40116 366 ft 10 kts 228°
2026-05-05 20:05 30.10556 31.40050 366 ft 13 kts 229°
2026-05-05 20:06 30.10489 31.39961 366 ft 17 kts 229°
2026-05-05 20:06 30.10407 31.39852 366 ft 19 kts 230°
2026-05-05 20:06 30.10334 31.39756 367 ft 12 kts 229°
2026-05-05 20:06 30.10308 31.39721 367 ft 1 kts 229°
2026-05-05 20:07 30.10307 31.39721 367 ft 0 kts 229°
2026-05-05 20:08 30.10307 31.39717 366 ft 3 kts 245°
2026-05-05 20:08 30.10302 31.39649 367 ft 10 kts 238°
2026-05-05 20:08 30.10247 31.39612 369 ft 9 kts 211°
2026-05-05 20:08 30.10175 31.39566 368 ft 15 kts 194°
2026-05-05 20:09 30.10092 31.39625 374 ft 15 kts 141°
2026-05-05 20:09 30.10027 31.39689 381 ft 8 kts 131°
2026-05-05 20:09 30.10011 31.39731 384 ft 7 kts 107°
2026-05-05 20:09 30.10005 31.39813 387 ft 10 kts 89°
2026-05-05 20:10 30.10027 31.39896 388 ft 19 kts 57°
2026-05-05 20:10 30.10261 31.40216 389 ft 86 kts 49°
2026-05-05 20:10 30.10784 31.40910 386 ft 141 kts 49°
2026-05-05 20:10 30.11529 31.41865 576 ft 167 kts 43°
2026-05-05 20:11 30.12307 31.42881 1146 ft 172 kts 45°
2026-05-05 20:11 30.13097 31.43939 1709 ft 178 kts 45°
2026-05-05 20:11 30.13981 31.44998 2008 ft 195 kts 30°
2026-05-05 20:11 30.15327 31.45312 2283 ft 212 kts 347°
2026-05-05 20:12 30.16638 31.44389 2635 ft 237 kts 313°
2026-05-05 20:12 30.17716 31.42866 3245 ft 250 kts 310°
2026-05-05 20:12 30.18805 31.41271 4046 ft 255 kts 309°
2026-05-05 20:12 30.19907 31.39646 4898 ft 258 kts 308°
2026-05-05 20:13 30.21029 31.38005 5715 ft 262 kts 308°
2026-05-05 20:13 30.22168 31.36351 6565 ft 264 kts 308°
2026-05-05 20:13 30.23320 31.34688 7354 ft 266 kts 308°
2026-05-05 20:13 30.24481 31.33010 8130 ft 269 kts 307°
2026-05-05 20:14 30.25656 31.31312 8914 ft 272 kts 307°
2026-05-05 20:14 30.26844 31.29598 9707 ft 275 kts 307°
2026-05-05 20:14 30.28051 31.27863 10387 ft 281 kts 307°
2026-05-05 20:14 30.29326 31.26027 10588 ft 304 kts 307°
2026-05-05 20:15 30.30692 31.24055 10894 ft 320 kts 307°
2026-05-05 20:15 30.32100 31.22022 11514 ft 326 kts 306°
2026-05-05 20:15 30.33520 31.19975 12247 ft 327 kts 306°
2026-05-05 20:15 30.34950 31.17914 13002 ft 328 kts 306°
2026-05-05 20:16 30.36381 31.15853 13752 ft 329 kts 306°
2026-05-05 20:16 30.37816 31.13783 14407 ft 331 kts 306°
2026-05-05 20:16 30.39262 31.11697 15017 ft 333 kts 306°
2026-05-05 20:16 30.40719 31.09598 15616 ft 336 kts 306°
2026-05-05 20:17 30.42182 31.07480 16209 ft 338 kts 306°
2026-05-05 20:17 30.43660 31.05337 16791 ft 341 kts 305°
2026-05-05 20:17 30.45145 31.03183 17369 ft 344 kts 305°
2026-05-05 20:17 30.46643 31.01010 17928 ft 346 kts 305°
2026-05-05 20:18 30.48154 30.98820 18507 ft 349 kts 305°
2026-05-05 20:18 30.49676 30.96615 19050 ft 351 kts 306°
2026-05-05 20:18 30.51200 30.94404 19580 ft 353 kts 306°
2026-05-05 20:18 30.52738 30.92174 20101 ft 355 kts 306°
2026-05-05 20:19 30.54282 30.89931 20609 ft 357 kts 306°
2026-05-05 20:19 30.55836 30.87670 21115 ft 359 kts 305°
2026-05-05 20:19 30.57398 30.85393 21619 ft 362 kts 305°
2026-05-05 20:19 30.58947 30.83135 22109 ft 364 kts 305°
2026-05-05 20:20 30.60532 30.80827 22595 ft 366 kts 305°
2026-05-05 20:20 30.62127 30.78507 23069 ft 369 kts 305°
2026-05-05 20:20 30.63728 30.76172 23531 ft 371 kts 305°
2026-05-05 20:20 30.65341 30.73817 23941 ft 374 kts 305°
2026-05-05 20:21 30.66964 30.71444 24313 ft 376 kts 305°
2026-05-05 20:21 30.68592 30.69063 24681 ft 378 kts 305°
2026-05-05 20:21 30.70234 30.66665 25038 ft 379 kts 305°
2026-05-05 20:21 30.71882 30.64257 25400 ft 381 kts 305°
2026-05-05 20:22 30.73534 30.61841 25742 ft 383 kts 305°
2026-05-05 20:22 30.75196 30.59409 26082 ft 385 kts 305°
2026-05-05 20:22 30.76866 30.56964 26420 ft 387 kts 305°
2026-05-05 20:22 30.78542 30.54508 26752 ft 389 kts 305°
2026-05-05 20:23 30.80230 30.52035 27077 ft 390 kts 305°
2026-05-05 20:23 30.81921 30.49556 27398 ft 392 kts 305°
2026-05-05 20:23 30.83620 30.47061 27711 ft 394 kts 304°
2026-05-05 20:23 30.85323 30.44554 28031 ft 396 kts 304°
2026-05-05 20:24 30.87032 30.42035 28337 ft 398 kts 304°
2026-05-05 20:24 30.88750 30.39502 28659 ft 399 kts 305°
2026-05-05 20:24 30.90455 30.36992 28957 ft 400 kts 305°
2026-05-05 20:24 30.92185 30.34446 29240 ft 402 kts 305°
2026-05-05 20:25 30.93924 30.31888 29515 ft 404 kts 305°
2026-05-05 20:25 30.95674 30.29311 29777 ft 405 kts 304°
2026-05-05 20:25 30.97422 30.26729 30033 ft 407 kts 304°
2026-05-05 20:25 30.99175 30.24134 30263 ft 409 kts 304°
2026-05-05 20:26 31.00937 30.21528 30469 ft 410 kts 304°
2026-05-05 20:26 31.02704 30.18916 30686 ft 411 kts 305°
2026-05-05 20:26 31.04476 30.16293 30873 ft 412 kts 305°
2026-05-05 20:26 31.06250 30.13660 31152 ft 411 kts 305°
2026-05-05 20:27 31.08013 30.11040 31448 ft 410 kts 305°
2026-05-05 20:27 31.09773 30.08424 31745 ft 409 kts 305°
2026-05-05 20:27 31.11530 30.05818 32037 ft 408 kts 305°
2026-05-05 20:27 31.13261 30.03255 32313 ft 407 kts 305°
2026-05-05 20:28 31.15010 30.00663 32589 ft 406 kts 305°
2026-05-05 20:28 31.16753 29.98069 32857 ft 406 kts 305°
2026-05-05 20:28 31.18489 29.95480 33125 ft 405 kts 305°
2026-05-05 20:28 31.20195 29.92867 33395 ft 404 kts 304°
2026-05-05 20:29 31.21861 29.90226 33658 ft 403 kts 304°
2026-05-05 20:29 31.23502 29.87574 33928 ft 402 kts 303°
2026-05-05 20:29 31.25131 29.84918 34187 ft 402 kts 303°
2026-05-05 20:29 31.26759 29.82265 34394 ft 402 kts 304°
2026-05-05 20:30 31.28391 29.79615 34643 ft 401 kts 304°
2026-05-05 20:30 31.30024 29.76971 34858 ft 400 kts 304°
2026-05-05 20:30 31.31658 29.74331 35052 ft 400 kts 304°
2026-05-05 20:30 31.33293 29.71694 35233 ft 400 kts 304°
2026-05-05 20:31 31.34908 29.69089 35403 ft 401 kts 304°
2026-05-05 20:31 31.36545 29.66449 35572 ft 401 kts 304°
2026-05-05 20:31 31.38181 29.63808 35736 ft 401 kts 304°
2026-05-05 20:31 31.39818 29.61161 35891 ft 401 kts 304°
2026-05-05 20:32 31.41452 29.58512 36048 ft 401 kts 304°
2026-05-05 20:32 31.44715 29.53218 36114 ft 400 kts 304°
2026-05-05 20:33 31.47974 29.47939 36112 ft 400 kts 304°
2026-05-05 20:33 31.51228 29.42659 36113 ft 400 kts 304°
2026-05-05 20:34 31.54486 29.37370 36116 ft 399 kts 304°
2026-05-05 20:34 31.57709 29.32115 36117 ft 400 kts 304°
2026-05-05 20:35 31.60955 29.26819 36116 ft 400 kts 304°
2026-05-05 20:35 31.64196 29.21525 36117 ft 400 kts 304°
2026-05-05 20:36 31.67436 29.16222 36120 ft 399 kts 304°
2026-05-05 20:36 31.70671 29.10925 36149 ft 399 kts 304°
2026-05-05 20:37 31.73901 29.05626 36135 ft 399 kts 304°
2026-05-05 20:37 31.77123 29.00320 36139 ft 399 kts 304°
2026-05-05 20:38 31.80352 28.95016 36130 ft 399 kts 304°
2026-05-05 20:38 31.83581 28.89706 36134 ft 399 kts 304°
2026-05-05 20:39 31.86781 28.84435 36128 ft 398 kts 304°
2026-05-05 20:39 31.89991 28.79124 36131 ft 398 kts 304°
2026-05-05 20:40 31.93200 28.73816 36132 ft 398 kts 304°
2026-05-05 20:40 31.96406 28.68514 36129 ft 397 kts 304°
2026-05-05 20:41 31.99602 28.63210 36129 ft 397 kts 304°
2026-05-05 20:41 32.02795 28.57909 36127 ft 396 kts 304°
2026-05-05 20:42 32.05981 28.52616 36124 ft 396 kts 304°
2026-05-05 20:42 32.09161 28.47324 36145 ft 396 kts 304°
2026-05-05 20:43 32.12340 28.42024 36144 ft 395 kts 304°
2026-05-05 20:43 32.15493 28.36755 36134 ft 395 kts 304°
2026-05-05 20:44 32.18660 28.31459 36137 ft 395 kts 304°
2026-05-05 20:44 32.21828 28.26161 36136 ft 395 kts 304°
2026-05-05 20:45 32.26563 28.18210 36139 ft 394 kts 304°
2026-05-05 20:45 32.29721 28.12906 36138 ft 394 kts 304°
2026-05-05 20:46 32.32872 28.07602 36134 ft 394 kts 304°
2026-05-05 20:46 32.36021 28.02295 36132 ft 394 kts 304°
2026-05-05 20:47 32.39165 27.96991 36137 ft 394 kts 304°
2026-05-05 20:47 32.42287 27.91723 36136 ft 393 kts 304°
2026-05-05 20:48 32.45423 27.86417 36141 ft 393 kts 304°
2026-05-05 20:48 32.48557 27.81111 36139 ft 393 kts 304°
2026-05-05 20:49 32.51678 27.75802 36147 ft 393 kts 304°
2026-05-05 20:49 32.54803 27.70491 36145 ft 393 kts 304°
2026-05-05 20:50 32.57402 27.66077 36143 ft 393 kts 304°
2026-05-05 20:50 32.61050 27.59863 36141 ft 393 kts 304°
2026-05-05 20:51 32.64173 27.54547 36131 ft 393 kts 304°
2026-05-05 20:51 32.67262 27.49259 36129 ft 392 kts 304°
2026-05-05 20:52 32.70368 27.43931 36132 ft 392 kts 304°
2026-05-05 20:52 32.73476 27.38609 36133 ft 392 kts 304°
2026-05-05 20:53 32.76575 27.33293 36134 ft 391 kts 304°
2026-05-05 20:53 32.79668 27.27966 36131 ft 391 kts 304°
2026-05-05 20:54 32.82756 27.22644 36128 ft 391 kts 304°
2026-05-05 20:54 32.85851 27.17318 36125 ft 391 kts 304°
2026-05-05 20:55 32.88942 27.11993 36128 ft 391 kts 304°
2026-05-05 20:55 32.91501 27.07565 36129 ft 391 kts 304°
2026-05-05 20:56 32.94580 27.02233 36128 ft 391 kts 304°
2026-05-05 20:56 32.97665 26.96903 36129 ft 390 kts 304°
2026-05-05 20:57 33.00739 26.91573 36124 ft 390 kts 304°
2026-05-05 20:57 33.03809 26.86235 36117 ft 390 kts 304°
2026-05-05 20:58 33.06867 26.80897 36122 ft 390 kts 304°
2026-05-05 20:58 33.09909 26.75590 36127 ft 389 kts 304°
2026-05-05 20:59 33.12967 26.70262 36126 ft 389 kts 304°
2026-05-05 20:59 33.16016 26.64927 36126 ft 389 kts 304°
2026-05-05 21:00 33.19070 26.59591 36127 ft 389 kts 304°
2026-05-05 21:00 33.22119 26.54254 36129 ft 389 kts 304°
2026-05-05 21:01 33.25160 26.48904 36130 ft 388 kts 304°
2026-05-05 21:01 33.28176 26.43601 36129 ft 388 kts 304°
2026-05-05 21:02 33.31211 26.38264 36140 ft 388 kts 304°
2026-05-05 21:02 33.34240 26.32925 36136 ft 388 kts 304°
2026-05-05 21:03 33.37266 26.27577 36128 ft 388 kts 304°
2026-05-05 21:03 33.40291 26.22230 36134 ft 388 kts 304°
2026-05-05 21:04 33.43315 26.16882 36133 ft 387 kts 304°
2026-05-05 21:04 33.46332 26.11532 36123 ft 387 kts 304°
2026-05-05 21:05 33.49320 26.06219 36124 ft 387 kts 304°
2026-05-05 21:05 33.52328 26.00864 36125 ft 387 kts 304°
2026-05-05 21:06 33.55335 25.95513 36126 ft 387 kts 304°
2026-05-05 21:06 33.58337 25.90156 36120 ft 387 kts 304°
2026-05-05 21:07 33.61335 25.84798 36125 ft 387 kts 304°
2026-05-05 21:07 33.64329 25.79434 36123 ft 386 kts 304°
2026-05-05 21:08 33.67324 25.74075 36126 ft 386 kts 304°
2026-05-05 21:08 33.70315 25.68704 36146 ft 386 kts 304°
2026-05-05 21:09 33.73281 25.63372 36119 ft 386 kts 304°
2026-05-05 21:09 33.76272 25.58002 36116 ft 386 kts 304°
2026-05-05 21:10 33.79258 25.52635 36120 ft 386 kts 304°
2026-05-05 21:10 33.82236 25.47250 36116 ft 387 kts 304°
2026-05-05 21:11 33.85215 25.41866 36123 ft 387 kts 304°
2026-05-05 21:11 33.88195 25.36479 36119 ft 387 kts 304°
2026-05-05 21:12 33.91165 25.31079 36110 ft 387 kts 304°
2026-05-05 21:12 33.94120 25.25703 36112 ft 387 kts 304°
2026-05-05 21:13 33.97097 25.20296 36112 ft 387 kts 304°
2026-05-05 21:13 34.00069 25.14884 36124 ft 387 kts 304°
2026-05-05 21:14 34.03165 25.09568 36124 ft 387 kts 306°
2026-05-05 21:14 34.06368 25.04350 36115 ft 387 kts 307°
2026-05-05 21:15 34.09560 24.99119 36117 ft 387 kts 307°
2026-05-05 21:15 34.12730 24.93850 36116 ft 388 kts 306°
2026-05-05 21:16 34.15887 24.88558 36114 ft 389 kts 306°
2026-05-05 21:16 34.19047 24.83262 36114 ft 389 kts 306°
2026-05-05 21:17 34.22190 24.77991 36116 ft 389 kts 306°
2026-05-05 21:17 34.25359 24.72671 36108 ft 389 kts 306°
2026-05-05 21:18 34.28528 24.67360 36118 ft 389 kts 306°
2026-05-05 21:18 34.31698 24.62035 36115 ft 389 kts 306°
2026-05-05 21:19 34.34859 24.56705 36117 ft 390 kts 306°
2026-05-05 21:19 34.37997 24.51411 36119 ft 390 kts 306°
2026-05-05 21:20 34.41152 24.46072 36118 ft 390 kts 306°
2026-05-05 21:20 34.44307 24.40727 36127 ft 390 kts 306°
2026-05-05 21:21 34.47458 24.35377 36125 ft 390 kts 306°
2026-05-05 21:21 34.50619 24.30020 36113 ft 391 kts 306°
2026-05-05 21:22 34.53780 24.24651 36111 ft 391 kts 306°
2026-05-05 21:22 34.56943 24.19265 36114 ft 392 kts 306°
2026-05-05 21:23 34.60101 24.13873 36111 ft 392 kts 306°
2026-05-05 21:23 34.63260 24.08471 36117 ft 392 kts 306°
2026-05-05 21:24 34.66397 24.03102 36112 ft 392 kts 306°
2026-05-05 21:24 34.69555 23.97685 36116 ft 392 kts 306°
2026-05-05 21:25 34.72715 23.92272 36121 ft 393 kts 306°
2026-05-05 21:25 34.75872 23.86849 36123 ft 393 kts 306°
2026-05-05 21:26 34.79021 23.81418 36118 ft 393 kts 306°
2026-05-05 21:26 34.82171 23.75990 36125 ft 393 kts 306°
2026-05-05 21:27 34.85324 23.70562 36129 ft 393 kts 306°
2026-05-05 21:27 34.88448 23.65165 36133 ft 392 kts 306°
2026-05-05 21:28 34.91587 23.59725 36138 ft 392 kts 306°
2026-05-05 21:28 34.94729 23.54276 36133 ft 392 kts 306°
2026-05-05 21:29 34.97867 23.48827 36139 ft 392 kts 305°
2026-05-05 21:29 35.00999 23.43379 36133 ft 392 kts 305°
2026-05-05 21:30 35.04131 23.37917 36130 ft 393 kts 305°
2026-05-05 21:30 35.07265 23.32452 36123 ft 393 kts 305°
2026-05-05 21:31 35.10396 23.26974 36132 ft 393 kts 305°
2026-05-05 21:31 35.13501 23.21532 36135 ft 393 kts 305°
2026-05-05 21:32 35.16628 23.16042 36133 ft 393 kts 305°
2026-05-05 21:32 35.19759 23.10554 36136 ft 393 kts 305°
2026-05-05 21:33 35.22890 23.05057 36139 ft 394 kts 305°
2026-05-05 21:33 35.26014 22.99557 36135 ft 394 kts 305°
2026-05-05 21:34 35.29133 22.94047 36130 ft 394 kts 305°
2026-05-05 21:34 35.32241 22.88560 36131 ft 394 kts 305°
2026-05-05 21:35 35.35361 22.83037 36132 ft 394 kts 304°
2026-05-05 21:35 35.38478 22.77505 36118 ft 394 kts 304°
2026-05-05 21:36 35.41596 22.71966 36116 ft 395 kts 304°
2026-05-05 21:36 35.44725 22.66411 36122 ft 396 kts 304°
2026-05-05 21:37 35.47851 22.60843 36126 ft 396 kts 304°
2026-05-05 21:37 35.50975 22.55261 36123 ft 397 kts 304°
2026-05-05 21:38 35.54097 22.49672 36126 ft 397 kts 304°
2026-05-05 21:38 35.57222 22.44088 36129 ft 397 kts 304°
2026-05-05 21:39 35.60348 22.38492 36124 ft 397 kts 304°
2026-05-05 21:39 35.63475 22.32881 36124 ft 398 kts 304°
2026-05-05 21:40 35.66578 22.27297 36125 ft 398 kts 304°
2026-05-05 21:40 35.69697 22.21664 36130 ft 398 kts 304°
2026-05-05 21:41 35.72821 22.16026 36128 ft 399 kts 304°
2026-05-05 21:41 35.75950 22.10389 36126 ft 399 kts 304°
2026-05-05 21:42 35.79076 22.04737 36133 ft 399 kts 304°
2026-05-05 21:42 35.82201 21.99075 36140 ft 399 kts 304°
2026-05-05 21:43 35.85315 21.93413 36133 ft 399 kts 304°
2026-05-05 21:43 35.88432 21.87739 36141 ft 399 kts 304°
2026-05-05 21:44 35.91553 21.82066 36150 ft 399 kts 304°
2026-05-05 21:44 35.94662 21.76384 36141 ft 400 kts 304°
2026-05-05 21:45 35.97770 21.70695 36141 ft 400 kts 304°
2026-05-05 21:45 36.00866 21.65039 36137 ft 400 kts 304°
2026-05-05 21:46 36.03975 21.59344 36141 ft 400 kts 304°
2026-05-05 21:46 36.07074 21.53636 36145 ft 400 kts 304°
2026-05-05 21:47 36.10172 21.47921 36146 ft 400 kts 304°
2026-05-05 21:47 36.13280 21.42206 36141 ft 400 kts 304°
2026-05-05 21:48 36.15858 21.37453 36145 ft 400 kts 304°
2026-05-05 21:48 36.18955 21.31729 36143 ft 400 kts 304°
2026-05-05 21:49 36.22548 21.25070 36151 ft 400 kts 304°
2026-05-05 21:49 36.25138 21.20267 36151 ft 400 kts 304°
2026-05-05 21:50 36.28203 21.14569 36155 ft 400 kts 304°
2026-05-05 21:50 36.31286 21.08832 36150 ft 400 kts 304°
2026-05-05 21:51 36.34369 21.03086 36150 ft 400 kts 304°
2026-05-05 21:51 36.37446 20.97336 36147 ft 400 kts 304°
2026-05-05 21:52 36.42061 20.88710 36149 ft 400 kts 304°
2026-05-05 21:53 36.45140 20.82952 36150 ft 400 kts 304°
2026-05-05 21:53 36.48208 20.77195 36136 ft 399 kts 304°
2026-05-05 21:54 36.51256 20.71434 36154 ft 399 kts 304°
2026-05-05 21:54 36.54282 20.65716 36154 ft 398 kts 304°
2026-05-05 21:55 36.57328 20.59969 36156 ft 398 kts 304°
2026-05-05 21:55 36.60374 20.54215 36155 ft 398 kts 304°
2026-05-05 21:56 36.63413 20.48462 36151 ft 398 kts 304°
2026-05-05 21:56 36.66445 20.42701 36152 ft 397 kts 303°
2026-05-05 21:57 36.69470 20.36944 36151 ft 397 kts 303°
2026-05-05 21:57 36.72494 20.31188 36154 ft 397 kts 303°
2026-05-05 21:58 36.75519 20.25432 36154 ft 397 kts 303°
2026-05-05 21:58 36.78533 20.19674 36155 ft 396 kts 303°
2026-05-05 21:59 36.81517 20.13938 36154 ft 396 kts 303°
2026-05-05 21:59 36.84526 20.08168 36142 ft 396 kts 303°
2026-05-05 22:00 36.87533 20.02406 36147 ft 396 kts 303°
2026-05-05 22:00 36.90531 19.96639 36149 ft 396 kts 303°
2026-05-05 22:01 36.93526 19.90863 36149 ft 396 kts 303°
2026-05-05 22:01 36.96517 19.85093 36157 ft 396 kts 303°
2026-05-05 22:02 36.99509 19.79308 36136 ft 396 kts 303°
2026-05-05 22:02 37.02501 19.73516 36138 ft 396 kts 303°
2026-05-05 22:03 37.05490 19.67714 36138 ft 396 kts 303°
2026-05-05 22:03 37.08458 19.61948 36139 ft 397 kts 303°
2026-05-05 22:04 37.11443 19.56132 36141 ft 397 kts 303°
2026-05-05 22:04 37.14425 19.50315 36141 ft 397 kts 303°
2026-05-05 22:05 37.17403 19.44496 36135 ft 397 kts 303°
2026-05-05 22:05 37.20378 19.38665 36133 ft 397 kts 303°
2026-05-05 22:06 37.23353 19.32824 36137 ft 397 kts 303°
2026-05-05 22:06 37.26331 19.26988 36137 ft 397 kts 303°
2026-05-05 22:07 37.29306 19.21143 36134 ft 397 kts 302°
2026-05-05 22:07 37.32275 19.15281 36143 ft 398 kts 303°
2026-05-05 22:08 37.35246 19.09416 36132 ft 398 kts 302°
2026-05-05 22:08 37.38221 19.03535 36127 ft 399 kts 302°
2026-05-05 22:09 37.40625 18.97320 36121 ft 401 kts 287°
2026-05-05 22:09 37.42147 18.90566 36125 ft 401 kts 287°
2026-05-05 22:10 37.43675 18.83806 36128 ft 402 kts 287°
2026-05-05 22:10 37.45205 18.77042 36122 ft 402 kts 287°
2026-05-05 22:11 37.46729 18.70270 36122 ft 402 kts 287°
2026-05-05 22:11 37.48251 18.63485 36125 ft 403 kts 287°
2026-05-05 22:12 37.49775 18.56695 36127 ft 403 kts 287°
2026-05-05 22:12 37.51293 18.49900 36128 ft 403 kts 287°
2026-05-05 22:13 37.52806 18.43097 36127 ft 403 kts 287°
2026-05-05 22:13 37.54314 18.36296 36121 ft 403 kts 287°
2026-05-05 22:14 37.55816 18.29492 36125 ft 403 kts 287°
2026-05-05 22:14 37.57306 18.22731 36126 ft 403 kts 287°
2026-05-05 22:15 37.58799 18.15926 36124 ft 403 kts 287°
2026-05-05 22:15 37.60291 18.09113 36124 ft 403 kts 287°
2026-05-05 22:16 37.61777 18.02300 36127 ft 403 kts 286°
2026-05-05 22:16 37.63260 17.95487 36124 ft 403 kts 286°
2026-05-05 22:17 37.64745 17.88677 36121 ft 403 kts 286°
2026-05-05 22:17 37.66230 17.81852 36116 ft 403 kts 286°
2026-05-05 22:18 37.67693 17.75024 36119 ft 403 kts 286°
2026-05-05 22:18 37.69158 17.68196 36110 ft 403 kts 286°
2026-05-05 22:19 37.70624 17.61360 36111 ft 403 kts 285°
2026-05-05 22:19 37.72070 17.54562 36106 ft 403 kts 285°
2026-05-05 22:20 37.73523 17.47715 36107 ft 404 kts 285°
2026-05-05 22:20 37.74982 17.40864 36108 ft 404 kts 285°
2026-05-05 22:21 37.76434 17.34003 36099 ft 404 kts 285°
2026-05-05 22:21 37.77886 17.27135 36099 ft 405 kts 285°
2026-05-05 22:22 37.79335 17.20256 36100 ft 405 kts 285°
2026-05-05 22:22 37.80778 17.13372 36096 ft 405 kts 285°
2026-05-05 22:23 37.82221 17.06483 36098 ft 405 kts 285°
2026-05-05 22:23 37.83657 16.99589 36092 ft 406 kts 285°
2026-05-05 22:24 37.85081 16.92727 36092 ft 406 kts 285°
2026-05-05 22:24 37.86515 16.85815 36090 ft 406 kts 285°
2026-05-05 22:25 37.87947 16.78891 36089 ft 407 kts 285°
2026-05-05 22:25 37.89369 16.71963 36091 ft 407 kts 284°
2026-05-05 22:26 37.90793 16.65029 36081 ft 407 kts 284°
2026-05-05 22:26 37.92216 16.58075 36082 ft 408 kts 284°
2026-05-05 22:27 37.93635 16.51116 36087 ft 409 kts 284°
2026-05-05 22:27 37.95055 16.44145 36083 ft 409 kts 284°
2026-05-05 22:28 37.96467 16.37163 36083 ft 409 kts 284°
2026-05-05 22:28 37.97871 16.30177 36094 ft 409 kts 283°
2026-05-05 22:29 37.99275 16.23192 36090 ft 409 kts 284°
2026-05-05 22:29 38.00680 16.16217 36092 ft 408 kts 283°
2026-05-05 22:30 38.02064 16.09280 36089 ft 408 kts 283°
2026-05-05 22:30 38.03452 16.02296 36085 ft 408 kts 283°
2026-05-05 22:31 38.04841 15.95315 36095 ft 408 kts 283°
2026-05-05 22:31 38.06227 15.88330 36080 ft 407 kts 283°
2026-05-05 22:32 38.07606 15.81342 36079 ft 408 kts 283°
2026-05-05 22:32 38.08980 15.74357 36075 ft 408 kts 283°
2026-05-05 22:33 38.10342 15.67364 36075 ft 408 kts 283°
2026-05-05 22:33 38.11703 15.60376 36077 ft 408 kts 283°
2026-05-05 22:34 38.13065 15.53388 36071 ft 408 kts 283°
2026-05-05 22:34 38.14427 15.46391 36071 ft 408 kts 283°
2026-05-05 22:35 38.15777 15.39383 36066 ft 408 kts 283°
2026-05-05 22:35 38.17120 15.32374 36058 ft 408 kts 283°
2026-05-05 22:36 38.18467 15.25366 36058 ft 408 kts 282°
2026-05-05 22:36 38.19799 15.18399 36046 ft 409 kts 282°
2026-05-05 22:37 38.21141 15.11377 36049 ft 409 kts 282°
2026-05-05 22:37 38.22482 15.04347 36027 ft 409 kts 282°
2026-05-05 22:37 38.23151 15.00824 35778 ft 410 kts 282°
2026-05-05 22:38 38.23818 14.97290 35528 ft 411 kts 282°
2026-05-05 22:38 38.24481 14.93759 35280 ft 411 kts 282°
2026-05-05 22:38 38.25144 14.90219 35050 ft 412 kts 282°
2026-05-05 22:38 38.25807 14.86673 34742 ft 410 kts 282°
2026-05-05 22:39 38.26467 14.83162 34243 ft 407 kts 282°
2026-05-05 22:39 38.27123 14.79666 33688 ft 404 kts 282°
2026-05-05 22:39 38.27769 14.76209 33183 ft 399 kts 282°
2026-05-05 22:39 38.28407 14.72792 32685 ft 395 kts 282°
2026-05-05 22:40 38.28825 14.70548 32356 ft 392 kts 282°
2026-05-05 22:40 38.29451 14.67189 31866 ft 389 kts 282°
2026-05-05 22:40 38.30273 14.62775 31227 ft 385 kts 282°
2026-05-05 22:40 38.30883 14.59474 30751 ft 382 kts 282°
2026-05-05 22:41 38.31488 14.56189 30278 ft 379 kts 282°
2026-05-05 22:41 38.32089 14.52932 29771 ft 376 kts 282°
2026-05-05 22:41 38.32494 14.50749 29457 ft 374 kts 282°
2026-05-05 22:41 38.33051 14.47581 29003 ft 369 kts 278°
2026-05-05 22:42 38.33203 14.43253 28376 ft 364 kts 265°
2026-05-05 22:42 38.32996 14.41141 28073 ft 362 kts 262°
2026-05-05 22:42 38.32628 14.37980 27630 ft 359 kts 262°
2026-05-05 22:42 38.32271 14.34847 27195 ft 356 kts 262°
2026-05-05 22:43 38.31923 14.31736 26763 ft 353 kts 262°
2026-05-05 22:43 38.31577 14.28656 26339 ft 350 kts 262°
2026-05-05 22:43 38.31230 14.25603 25924 ft 347 kts 262°
2026-05-05 22:43 38.30883 14.22571 25500 ft 345 kts 262°
2026-05-05 22:44 38.30540 14.19562 25067 ft 342 kts 262°
2026-05-05 22:44 38.30198 14.16573 24636 ft 340 kts 262°
2026-05-05 22:44 38.29859 14.13601 24206 ft 338 kts 261°
2026-05-05 22:44 38.29520 14.10641 23758 ft 337 kts 261°
2026-05-05 22:45 38.29180 14.07692 23277 ft 336 kts 261°
2026-05-05 22:45 38.28839 14.04757 22821 ft 333 kts 261°
2026-05-05 22:45 38.28500 14.01851 22376 ft 331 kts 261°
2026-05-05 22:45 38.28168 13.99001 21939 ft 329 kts 261°
2026-05-05 22:46 38.27836 13.96132 21510 ft 327 kts 261°
2026-05-05 22:46 38.27503 13.93273 21085 ft 325 kts 261°
2026-05-05 22:46 38.27174 13.90435 20650 ft 324 kts 261°
2026-05-05 22:46 38.26843 13.87601 20223 ft 323 kts 261°
2026-05-05 22:47 38.26511 13.84779 19820 ft 322 kts 262°
2026-05-05 22:47 38.26176 13.81964 19389 ft 321 kts 262°
2026-05-05 22:47 38.25844 13.79153 18976 ft 321 kts 262°
2026-05-05 22:47 38.25513 13.76350 18560 ft 320 kts 262°
2026-05-05 22:48 38.25183 13.73553 18118 ft 320 kts 262°
2026-05-05 22:48 38.24851 13.70761 17697 ft 318 kts 262°
2026-05-05 22:48 38.24520 13.67987 17291 ft 316 kts 262°
2026-05-05 22:48 38.24191 13.65239 16895 ft 314 kts 262°
2026-05-05 22:49 38.23864 13.62504 16500 ft 312 kts 262°
2026-05-05 22:49 38.23539 13.59782 16112 ft 310 kts 262°
2026-05-05 22:49 38.23219 13.57109 15733 ft 309 kts 262°
2026-05-05 22:49 38.22893 13.54417 15348 ft 308 kts 261°
2026-05-05 22:50 38.22568 13.51738 14966 ft 306 kts 261°
2026-05-05 22:50 38.22245 13.49060 14585 ft 305 kts 262°
2026-05-05 22:50 38.21922 13.46400 14205 ft 304 kts 262°
2026-05-05 22:50 38.21869 13.43682 13430 ft 315 kts 279°
2026-05-05 22:51 38.22652 13.41033 12551 ft 329 kts 301°
2026-05-05 22:51 38.24075 13.38682 11660 ft 341 kts 307°
2026-05-05 22:51 38.25592 13.36315 10765 ft 350 kts 307°
2026-05-05 22:51 38.27125 13.33861 9891 ft 357 kts 304°
2026-05-05 22:52 38.28570 13.31319 9462 ft 349 kts 303°
2026-05-05 22:52 38.29911 13.28828 9318 ft 333 kts 303°
2026-05-05 22:52 38.31408 13.26687 9335 ft 317 kts 319°
2026-05-05 22:52 38.33315 13.25444 9339 ft 304 kts 343°
2026-05-05 22:53 38.35375 13.25272 9340 ft 292 kts
2026-05-05 22:53 38.37276 13.25955 9344 ft 278 kts 24°
2026-05-05 22:53 38.38872 13.27223 9338 ft 264 kts 40°
2026-05-05 22:53 38.40106 13.28914 9339 ft 260 kts 56°
2026-05-05 22:54 38.40944 13.30937 9340 ft 258 kts 72°
2026-05-05 22:54 38.41327 13.33158 9342 ft 256 kts 88°
2026-05-05 22:54 38.41242 13.35408 9342 ft 254 kts 104°
2026-05-05 22:54 38.40726 13.37539 9343 ft 251 kts 114°
2026-05-05 22:55 38.40086 13.39622 9210 ft 252 kts 115°
2026-05-05 22:55 38.39412 13.41656 8978 ft 246 kts 117°
2026-05-05 22:55 38.38704 13.43617 8751 ft 241 kts 118°
2026-05-05 22:55 38.37972 13.45516 8522 ft 236 kts 120°
2026-05-05 22:56 38.37229 13.47361 8296 ft 232 kts 121°
2026-05-05 22:56 38.36488 13.49163 8071 ft 227 kts 121°
2026-05-05 22:56 38.35756 13.50929 7841 ft 223 kts 122°
2026-05-05 22:56 38.34866 13.52508 7620 ft 217 kts 137°
2026-05-05 22:57 38.33628 13.53443 7382 ft 204 kts 177°
2026-05-05 22:57 38.32315 13.53018 7161 ft 198 kts 222°
2026-05-05 22:57 38.31634 13.51528 6961 ft 200 kts 254°
2026-05-05 22:57 38.31190 13.49820 6536 ft 207 kts 246°
2026-05-05 22:58 38.30620 13.48123 6042 ft 208 kts 245°
2026-05-05 22:58 38.30057 13.46447 5718 ft 203 kts 245°
2026-05-05 22:58 38.29518 13.44829 5448 ft 200 kts 246°
2026-05-05 22:58 38.28980 13.43209 5185 ft 198 kts 245°
2026-05-05 22:59 38.28446 13.41604 4935 ft 197 kts 245°
2026-05-05 22:59 38.27913 13.40000 4668 ft 196 kts 245°
2026-05-05 22:59 38.27380 13.38398 4415 ft 196 kts 245°
2026-05-05 22:59 38.26850 13.36804 4149 ft 195 kts 245°
2026-05-05 23:00 38.25792 13.33631 3643 ft 194 kts 244°
2026-05-05 23:00 38.25264 13.32046 3392 ft 194 kts 244°
2026-05-05 23:00 38.24736 13.30462 3137 ft 194 kts 244°
2026-05-05 23:01 38.24207 13.28878 2884 ft 195 kts 245°
2026-05-05 23:01 38.23683 13.27308 2660 ft 191 kts 245°
2026-05-05 23:01 38.23168 13.25766 2380 ft 187 kts 244°
2026-05-05 23:01 38.22673 13.24285 2132 ft 175 kts 245°
2026-05-05 23:02 38.22218 13.22924 1905 ft 164 kts 245°
2026-05-05 23:02 38.21787 13.21637 1695 ft 152 kts 245°
2026-05-05 23:02 38.21383 13.20432 1521 ft 145 kts 246°
2026-05-05 23:02 38.20995 13.19272 1325 ft 141 kts 246°
2026-05-05 23:03 38.20611 13.18126 1135 ft 140 kts 246°
2026-05-05 23:03 38.20230 13.16991 945 ft 139 kts 247°
2026-05-05 23:03 38.19853 13.15867 754 ft 138 kts 247°
2026-05-05 23:03 38.19477 13.14745 578 ft 138 kts 247°
2026-05-05 23:04 38.19103 13.13631 399 ft 137 kts 248°
2026-05-05 23:04 38.18734 13.12517 242 ft 136 kts 248°
2026-05-05 23:04 38.18363 13.11417 65 ft 127 kts 248°
2026-05-05 23:04 38.18124 13.10710 66 ft 44 kts 247°
2026-05-05 23:05 38.18033 13.10438 67 ft 31 kts 247°
2026-05-05 23:05 38.18013 13.10266 66 ft 20 kts 275°
2026-05-05 23:05 38.18030 13.10086 64 ft 19 kts 277°
2026-05-05 23:05 38.18050 13.09959 58 ft 11 kts 309°
2026-05-05 23:06 38.18097 13.10005 63 ft 13 kts 70°
2026-05-05 23:06 38.18132 13.10123 65 ft 15 kts 70°
2026-05-05 23:06 38.18175 13.10250 66 ft 16 kts 66°
2026-05-05 23:06 38.18238 13.10363 63 ft 16 kts 11°
2026-05-05 23:07 38.18313 13.10426 63 ft 13 kts 67°
2026-05-05 23:07 38.18375 13.10495 64 ft 12 kts 20°
2026-05-05 23:07 38.18442 13.10521 65 ft 9 kts
2026-05-05 23:07 38.18493 13.10498 58 ft 7 kts 337°
2026-05-05 23:08 38.18517 13.10485 60 ft 1 kts 336°
2026-05-05 23:08 38.18518 13.10485 60 ft 0 kts 336°